| time (UTC) | temp C | wind direction | speed KPH | gust KPH | rain 1hr cm | rain 24hr cm | rain mn cm | humidity % | barometer mb |
| 20260905140120 | 10 | 191 | 0.0 | 0.0 | 0.00 | 0.00 | 0.00 | 91 | 1017.8 |
| 20260905134501 | 10 | 191 | 0.0 | 0.0 | 0.00 | 0.00 | 0.00 | 91 | 1017.7 |
| 20260905133004 | 10 | 191 | 0.0 | 1.6 | 0.00 | 0.00 | 0.00 | 91 | 1017.7 |
| 20260905131510 | 9 | 191 | 0.0 | 0.0 | 0.00 | 0.00 | 0.00 | 91 | 1017.8 |
| 20260905130118 | 9 | 191 | 0.0 | 0.0 | 0.00 | 0.00 | 0.00 | 91 | 1017.7 |
| 20260905124602 | 9 | 191 | 0.0 | 0.0 | 0.00 | 0.00 | 0.00 | 91 | 1017.6 |
| 20260905123005 | 9 | 191 | 0.0 | 1.6 | 0.00 | 0.00 | 0.00 | 91 | 1017.3 |
| 20260905121505 | 8 | 191 | 0.0 | 0.0 | 0.00 | 0.00 | 0.00 | 91 | 1017.4 |
| 20260905120116 | 8 | 191 | 0.0 | 0.0 | 0.00 | 0.00 | 0.00 | 91 | 1017.3 |
| 20260905114502 | 8 | 191 | 0.0 | 1.6 | 0.00 | 0.00 | 0.00 | 91 | 1017.2 |
| 20260905113006 | 8 | 242 | 0.0 | 0.0 | 0.00 | 0.00 | 0.00 | 91 | 1017.1 |
| 20260905111511 | 8 | 242 | 0.0 | 0.0 | 0.00 | 0.00 | 0.00 | 91 | 1017.1 |
| 20260905110117 | 8 | 242 | 0.0 | 0.0 | 0.00 | 0.00 | 0.00 | 91 | 1017.1 |
| 20260905104508 | 8 | 243 | 0.0 | 0.0 | 0.00 | 0.00 | 0.00 | 91 | 1017.2 |
| 20260905103012 | 8 | 243 | 0.0 | 0.0 | 0.00 | 0.00 | 0.00 | 91 | 1017.1 |
| 20260905101516 | 9 | 242 | 0.0 | 0.0 | 0.00 | 0.00 | 0.00 | 91 | 1017.1 |
| 20260905100001 | 9 | 242 | 0.0 | 0.0 | 0.00 | 0.00 | 0.00 | 91 | 1017.2 |
| 20260905094506 | 10 | 242 | 0.0 | 0.0 | 0.00 | 0.00 | 0.00 | 91 | 1017.2 |
| 20260905093010 | 10 | 242 | 0.0 | 0.0 | 0.00 | 0.00 | 0.00 | 91 | 1017.2 |
| 20260905091510 | 10 | 242 | 0.0 | 0.0 | 0.00 | 0.00 | 0.00 | 90 | 1017.2 |
| 20260905090117 | 10 | 242 | 0.0 | 0.0 | 0.00 | 0.00 | 0.00 | 90 | 1017.0 |
| 20260905084612 | 10 | 242 | 0.0 | 0.0 | 0.00 | 0.00 | 0.00 | 90 | 1017.0 |
| 20260905083002 | 10 | 242 | 0.0 | 0.0 | 0.00 | 0.00 | 0.00 | 90 | 1016.9 |
| 20260905081506 | 10 | 242 | 0.0 | 0.0 | 0.00 | 0.00 | 0.00 | 90 | 1016.8 |
| 20260905080142 | 10 | 242 | 0.0 | 0.0 | 0.00 | 0.00 | 0.00 | 90 | 1016.8 |
| 20260905074505 | 10 | 243 | 0.0 | 0.0 | 0.00 | 0.00 | 0.00 | 90 | 1016.9 |
| 20260905073024 | 10 | 242 | 0.0 | 0.0 | 0.00 | 0.00 | 0.00 | 90 | 1016.8 |
| 20260905071522 | 10 | 243 | 0.0 | 0.0 | 0.00 | 0.00 | 0.00 | 90 | 1016.7 |
| 20260905070129 | 10 | 242 | 0.0 | 0.0 | 0.00 | 0.00 | 0.00 | 90 | 1016.6 |
| 20260905064603 | 11 | 242 | 0.0 | 1.6 | 0.00 | 0.00 | 0.00 | 90 | 1016.5 |
| 20260905063103 | 11 | 243 | 0.0 | 0.0 | 0.00 | 0.00 | 0.00 | 90 | 1016.3 |
| 20260905061502 | 11 | 242 | 0.0 | 0.0 | 0.00 | 0.00 | 0.00 | 90 | 1016.3 |
| 20260905060110 | 11 | 242 | 0.0 | 0.0 | 0.00 | 0.00 | 0.00 | 90 | 1016.4 |
| 20260905054603 | 11 | 242 | 0.0 | 0.0 | 0.00 | 0.00 | 0.00 | 90 | 1016.3 |
| 20260905053110 | 11 | 242 | 0.0 | 0.0 | 0.00 | 0.00 | 0.00 | 90 | 1016.2 |
| 20260905051602 | 11 | 242 | 0.0 | 0.0 | 0.00 | 0.00 | 0.00 | 89 | 1016.2 |
| 20260905050105 | 12 | 242 | 0.0 | 0.0 | 0.00 | 0.00 | 0.00 | 89 | 1016.3 |
| 20260905044557 | 12 | 243 | 0.0 | 0.0 | 0.00 | 0.00 | 0.00 | 88 | 1016.4 |
| 20260905043007 | 12 | 242 | 0.0 | 0.0 | 0.00 | 0.00 | 0.00 | 88 | 1016.3 |
| 20260905041510 | 12 | 242 | 0.0 | 0.0 | 0.00 | 0.00 | 0.00 | 88 | 1016.3 |
| 20260905040118 | 13 | 319 | 0.0 | 0.0 | 0.00 | 0.00 | 0.00 | 88 | 1016.2 |
| 20260905034606 | 13 | 321 | 0.0 | 0.0 | 0.00 | 0.00 | 0.00 | 87 | 1016.1 |
| 20260905033004 | 13 | 321 | 0.0 | 0.0 | 0.00 | 0.00 | 0.00 | 86 | 1016.0 |
| 20260905031509 | 14 | 321 | 0.0 | 0.0 | 0.00 | 0.00 | 0.00 | 83 | 1015.9 |
| 20260905030113 | 15 | 321 | 0.0 | 0.0 | 0.00 | 0.00 | 0.00 | 81 | 1015.6 |
| 20260905024600 | 15 | 321 | 0.0 | 0.0 | 0.00 | 0.00 | 0.00 | 77 | 1015.5 |
| 20260905023102 | 16 | 321 | 0.0 | 0.0 | 0.00 | 0.00 | 0.00 | 74 | 1015.4 |
| 20260905021502 | 17 | 321 | 0.0 | 0.0 | 0.00 | 0.00 | 0.00 | 71 | 1015.5 |
| 20260905020106 | 17 | 321 | 0.0 | 0.0 | 0.00 | 0.00 | 0.00 | 70 | 1015.5 |
| 20260905014601 | 18 | 321 | 0.0 | 0.0 | 0.00 | 0.00 | 0.00 | 71 | 1015.5 |
| 20260905013108 | 17 | 321 | 0.0 | 1.6 | 0.00 | 0.00 | 0.00 | 70 | 1015.3 |
| 20260905011511 | 17 | 321 | 0.0 | 3.2 | 0.00 | 0.00 | 0.00 | 70 | 1015.3 |
| 20260905010117 | 17 | 277 | 0.0 | 1.6 | 0.00 | 0.00 | 0.00 | 70 | 1015.1 |
| 20260905004604 | 17 | 321 | 0.0 | 3.2 | 0.00 | 0.00 | 0.00 | 72 | 1015.0 |
| 20260905003003 | 17 | 307 | 0.0 | 1.6 | 0.00 | 0.00 | 0.00 | 71 | 1014.9 |
| 20260905001507 | 17 | 351 | 0.0 | 3.2 | 0.00 | 0.00 | 0.00 | 71 | 1014.9 |
| 20260905000117 | 17 | 337 | 1.6 | 6.4 | 0.00 | 0.00 | 0.00 | 70 | 1014.8 |
| 20260904234558 | 18 | 214 | 0.0 | 8.0 | 0.00 | 0.00 | 0.00 | 66 | 1014.7 |
| 20260904233014 | 18 | 311 | 1.6 | 6.4 | 0.00 | 0.00 | 0.00 | 63 | 1014.6 |
| 20260904231509 | 20 | 342 | 1.6 | 6.4 | 0.00 | 0.00 | 0.00 | 62 | 1014.4 |
| 20260904230116 | 19 | 301 | 4.8 | 8.0 | 0.00 | 0.03 | 0.00 | 62 | 1014.5 |
| 20260904224600 | 20 | 304 | 1.6 | 9.7 | 0.00 | 0.03 | 0.00 | 65 | 1014.3 |
| 20260904223010 | 20 | 239 | 0.0 | 11.3 | 0.00 | 0.03 | 0.00 | 60 | 1014.3 |
| 20260904221513 | 20 | 250 | 0.0 | 8.0 | 0.00 | 0.03 | 0.00 | 64 | 1014.3 |
| 20260904220122 | 20 | 321 | 0.0 | 6.4 | 0.00 | 0.38 | 0.00 | 65 | 1014.5 |
| 20260904214505 | 19 | 329 | 3.2 | 8.0 | 0.00 | 0.38 | 0.00 | 67 | 1014.6 |
| 20260904213007 | 19 | 354 | 1.6 | 6.4 | 0.00 | 0.38 | 0.00 | 66 | 1014.6 |
| 20260904211515 | 18 | 326 | 1.6 | 9.7 | 0.00 | 0.38 | 0.00 | 69 | 1014.4 |
| 20260904210118 | 19 | 290 | 3.2 | 9.7 | 0.00 | 0.46 | 0.00 | 69 | 1014.5 |
| 20260904204604 | 18 | 326 | 0.0 | 8.0 | 0.00 | 0.46 | 0.00 | 71 | 1014.4 |
| 20260904203004 | 18 | 216 | 0.0 | 8.0 | 0.00 | 0.46 | 0.00 | 72 | 1014.4 |
| 20260904201507 | 18 | 319 | 0.0 | 8.0 | 0.00 | 0.46 | 0.00 | 73 | 1014.4 |
| 20260904200116 | 17 | 306 | 3.2 | 12.9 | 0.00 | 0.46 | 0.00 | 71 | 1014.4 |
| 20260904194600 | 17 | 225 | 3.2 | 12.9 | 0.00 | 0.46 | 0.00 | 71 | 1014.5 |
| 20260904193108 | 17 | 330 | 1.6 | 9.7 | 0.00 | 0.46 | 0.00 | 72 | 1014.3 |
| 20260904191502 | 18 | 330 | 1.6 | 6.4 | 0.00 | 0.46 | 0.00 | 69 | 1014.3 |
| 20260904190109 | 18 | 346 | 3.2 | 12.9 | 0.00 | 0.46 | 0.00 | 70 | 1014.1 |
| 20260904184555 | 18 | 330 | 3.2 | 8.0 | 0.00 | 0.46 | 0.00 | 72 | 1014.0 |
| 20260904183101 | 18 | 300 | 1.6 | 6.4 | 0.00 | 0.46 | 0.00 | 74 | 1014.0 |
| 20260904181602 | 17 | 335 | 1.6 | 6.4 | 0.00 | 0.46 | 0.00 | 74 | 1013.9 |
| 20260904180112 | 18 | 341 | 1.6 | 8.0 | 0.00 | 0.46 | 0.00 | 75 | 1014.1 |
| 20260904174551 | 17 | 308 | 0.0 | 4.8 | 0.00 | 0.46 | 0.00 | 73 | 1014.1 |
| 20260904173113 | 16 | 239 | 0.0 | 3.2 | 0.00 | 0.46 | 0.00 | 75 | 1014.0 |
| 20260904171601 | 16 | 14 | 0.0 | 4.8 | 0.00 | 0.46 | 0.00 | 78 | 1013.9 |
| 20260904170107 | 14 | 222 | 0.0 | 1.6 | 0.00 | 0.46 | 0.00 | 86 | 1014.0 |
| 20260904164545 | 13 | 222 | 0.0 | 3.2 | 0.00 | 0.46 | 0.00 | 89 | 1014.1 |
| 20260904163048 | 13 | 24 | 0.0 | 3.2 | 0.00 | 0.46 | 0.00 | 90 | 1014.2 |
| 20260904161550 | 12 | 353 | 0.0 | 3.2 | 0.00 | 0.46 | 0.00 | 91 | 1014.0 |
| 20260904160053 | 12 | 211 | 0.0 | 0.0 | 0.00 | 0.46 | 0.00 | 91 | 1013.9 |
| 20260904154539 | 11 | 212 | 0.0 | 0.0 | 0.00 | 0.46 | 0.00 | 91 | 1013.6 |
| 20260904153049 | 11 | 211 | 0.0 | 1.6 | 0.00 | 0.46 | 0.00 | 91 | 1013.5 |
| 20260904151549 | 10 | 210 | 1.6 | 3.2 | 0.00 | 0.46 | 0.00 | 91 | 1013.5 |
| 20260904150054 | 10 | 187 | 0.0 | 0.0 | 0.00 | 0.46 | 0.00 | 91 | 1013.5 |
| 20260904144536 | 10 | 187 | 0.0 | 0.0 | 0.00 | 0.46 | 0.00 | 91 | 1013.5 |
| 20260904143039 | 10 | 187 | 0.0 | 0.0 | 0.00 | 0.46 | 0.00 | 91 | 1013.5 |
| 20260904141543 | 9 | 187 | 0.0 | 0.0 | 0.00 | 0.46 | 0.00 | 91 | 1013.4 |